Regional Weather Roundup
Issued by NWS

Home | Current Version | Previous Version | Text Only | Print | Product List | Glossary Off
Versions: 1 2 3 4 5 6 7 8 9 10 11 12 13 14 15 16 17 18 19 20 21 22 23 24 25 26 27 28 29 30 31 32 33 34 35 36 37 38 39 40 41 42 43 44 45 46 47 48 49 50

000
ASUS43 KMKX 192011
RWRWI

WISCONSIN REGIONAL WEATHER ROUNDUP
NATIONAL WEATHER SERVICE MILWAUKEE/SULLIVAN WI
200 PM CST THU JAN 19 2017

NOTE: "FAIR" INDICATES FEW OR NO CLOUDS BELOW 12,000 FEET WITH NO
SIGNIFICANT WEATHER AND/OR OBSTRUCTIONS TO VISIBILITY.

WIZ001-002-006>008-014>016-023>028-192100-
NORTHWEST WISCONSIN

CITY           SKY/WX    TMP DP  RH WIND       PRES   REMARKS
SUPERIOR ARPT  SUNNY     47  36  63 SW7       29.71S
ASHLAND        SUNNY     47  35  63 S9        29.74F
HAYWARD        SUNNY     42  33  70 SE9       29.76F
SIREN          SUNNY     45  33  63 SE7       29.74F
CUMBERLAND     SUNNY     34  34 100 SE7       29.77S WCI  28
RICE LAKE      MOSUNNY   35  35 100 SE9       29.79S FOG     WCI  27
CHETEK         NOT AVBL
LADYSMITH      MOSUNNY   38  33  84 S3        29.81S
EAU CLAIRE     MOSUNNY   39  33  79 S8        29.79F WCI  33
MENOMONIE        N/A    N/A N/A N/A MISG        N/A
NEW RICHMOND   SUNNY     38  31  76 S7        29.77F WCI  33
OSCEOLA        SUNNY     40  33  74 S10       29.79R WCI  34
$$

WIZ003>005-009-010-017-018-192100-
NORTH CENTRAL WISCONSIN

CITY           SKY/WX    TMP DP  RH WIND       PRES   REMARKS
MANITOWISH WTR SUNNY     41  35  79 S6        29.76F
ARBOR VITAE    SUNNY     41  35  81 S3        29.78S
WOODRUFF       SUNNY     41  35  81 S3        29.78S
RHINELANDER    SUNNY     42  35  76 SW3       29.79F
EAGLE RIVER    SUNNY     43  33  66 CALM      29.78F
LAND O LAKES   SUNNY     47  35  64 SW5       29.78F
PHILLIPS       SUNNY     44  34  69 S7        29.77F
TOMAHAWK       CLOUDY    35  32  88 CALM      29.81S FOG
MEDFORD        FOG       31  31  99 S9        29.81S VSB<1/4 WCI  23
MERRILL        CLOUDY    34  33  98 SW5         N/A  FOG     WCI  30
$$

WIZ029-030-035-036-043>047-192100-
CENTRAL WISCONSIN

CITY           SKY/WX    TMP DP  RH WIND       PRES   REMARKS
WAUSAU         CLOUDY    33  32  96 S7        29.83R FOG     WCI  27
MOSINEE        CLOUDY    34  34 100 SE6       29.85S FOG     WCI  29
MARSHFIELD     FOG       32  32 100 SE8       29.82S VSB 1/4 WCI  25
STEVENS POINT  CLOUDY    32  32 100 SE5       29.86F FOG     WCI  27
WAUPACA        FOG       35  32  90 CALM      29.88F VSB 1
WAUTOMA        MOSUNNY   35  32  88 SE3       29.87F
WISC RAPIDS    NOT AVBL
CAMP DOUGLAS   MOSUNNY   37  32  81 SE7       29.84F WCI  32
$$

WIZ011>013-019>022-031-037>040-048>050-192100-
NORTHEAST WISCONSIN

CITY           SKY/WX    TMP DP  RH WIND       PRES   REMARKS
ANTIGO         CLOUDY    32  32 100 S7        29.83R FOG     WCI  26
SHAWANO        CLOUDY    36  33  90 SE3       29.87F FOG
OCONTO         CLOUDY    33  32  98 S6        29.87F WCI  27
STURGEON BAY   CLOUDY    34  32  92 S9        29.88S FOG     WCI  27
GREEN BAY      FOG       34  33  96 S9        29.89R VSB 1   WCI  27
MANITOWOC      CLOUDY    34  34 100 MISG      29.90S FOG
APPLETON       FOG       30  30 100 S8        29.88R VSB 1/4 WCI  23
CLINTONVILLE   FOG       32  32 100 S6        29.88S VSB 3/4 WCI  26
OSHKOSH        CLOUDY    33  31  92 S8        29.88F FOG     WCI  26
$$

WIZ032>034-041-042-053>061-192100-
SOUTHWEST WISCONSIN

CITY           SKY/WX    TMP DP  RH WIND       PRES   REMARKS
LA CROSSE      PTSUNNY   38  33  82 S8        29.83F WCI  32
SPARTA         SUNNY     42  33  70 S5        29.84F
VIROQUA        CLOUDY    34  34 100 SE9       29.83F VSB 1   WCI  26
BOSCOBEL       CLOUDY    39  33  79 NE6       29.85F WCI  35
PRAIRIE DU CHI CLOUDY    37  33  86 E3        29.83F FOG
PLATTEVILLE    CLOUDY    36  36 100 E8        29.84F WCI  29
$$

WIZ056-057-062-063-064-067-068-192100-
SOUTH CENTRAL WISCONSIN

CITY           SKY/WX    TMP DP  RH WIND       PRES   REMARKS
REEDSBURG      NOT AVBL
BARABOO/DELLS  CLOUDY    35  33  93 CALM      29.85F FOG
LONE ROCK      CLOUDY    37  34  89 E8        29.86F FOG     WCI  31
MINERAL POINT  CLOUDY    37  37 100 E6        29.83F FOG     WCI  33
MADISON        PTSUNNY   36  34  92 VRB5      29.88F FOG     WCI  32
MIDDLETON      MOSUNNY   38  37  99 SE5       29.87F WCI  34
WATERTOWN      CLOUDY    35  35 100 SE5       29.88F FOG     WCI  31
MONROE         FOG       34  34 100 E7        29.86S VSB<1/4 WCI  28
JANESVILLE     CLOUDY    37  37 100 SE6       29.88F FOG     WCI  33
$$

WIZ051-052-058>065-066-070>072-192100-
SOUTHEAST WISCONSIN

CITY           SKY/WX    TMP DP  RH WIND       PRES   REMARKS
MILWAUKEE      FOG       36  33  89 SE6       29.91F VSB 1/4 WCI  31
WAUKESHA       MOSUNNY   34  34 100 SE3       29.91F FOG
MILWAUKEE/TIMM MOSUNNY   37  32  81 CALM      29.91F HAZE
RACINE         CLOUDY    36  34  92 S10       29.92F FOG     WCI  28
KENOSHA        FOG       36  35  96 SE6       29.91F VSB 1/2 WCI  31
FOND DU LAC    CLOUDY    35  31  85 S8        29.88F FOG     WCI  29
SHEBOYGAN      FOG       33  32  96 S10       29.90S VSB 1/4 WCI  25
WEST BEND      FOG       34  34 100 S3        29.89F VSB 1/4
JUNEAU         FOG       33  33  99 SE8       29.89F VSB<1/4 WCI  26
$$

LSZ147-162-192100-
LAKE SUPERIOR

STATION/POSITION TIME  TEMP    WIND        PRES    WAVE
                       AIR SEA DIR/SP/G            HT/PER
                 (UTC) (F)     (DEG/KT/KT) (MB)    (FT/S)
DEVILS ISLAND    2000   36      80/  5/  5 1007.7R
PORT WING        1940   36      30/  7/  9 1006.8F
SAXON HARBOR     1930   51     200/  7/ 11 1007.1F
$$

LMZ867-665-643>646-192100-
LAKE MICHIGAN

STATION/POSITION TIME  TEMP    WIND        PRES    WAVE
                       AIR SEA DIR/SP/G            HT/PER
                 (UTC) (F)     (DEG/KT/KT) (MB)    (FT/S)
NORTHPORT PIER   1940   34     160/  3/  7 1011.5F
SISTER BAY       1905   35     200/ 13/ 15   N/A
KEWAUNEE LAKESHO 1942   34     200/ 10/ 13 1011.8F
SHEBOYGAN LAKESH 2000   33     180/ 14/ 16 1013.1R
PORT WASHINGTON  1940   34     180/  6/  8 1013.9F
MILWAUKEE LAKESH 1950   33     140/  9/ 10   N/A
KENOSHA   LAKESH 2000   34     160/  5/  7 1013.2
$$

TC  - TEMPERATURE IN CELSIUS
VSB - VISIBILITY IN STATUTE MILES
WCI - WIND CHILL INDEX
HX  - HEAT INDEX





USA.gov is the U.S. government's official web portal to all federal, state and local government web resources and services.